| time (UTC) | temp C | wind direction | speed KPH | gust KPH | rain 1hr cm | rain 24hr cm | rain mn cm | humidity % | barometer mb |
| 20260506011532 | 10 | 285 | 1.6 | 11.3 | 0.00 | 0.15 | 0.00 | 1 | 1006.1 |
| 20260506010009 | 10 | 254 | 3.2 | 9.7 | 0.00 | 0.15 | 0.00 | 1 | 1006.4 |
| 20260506003002 | 10 | 263 | 0.0 | 6.4 | 0.00 | 0.15 | 0.00 | 1 | 1006.5 |
| 20260506001601 | 9 | 218 | 1.6 | 4.8 | 0.00 | 0.15 | 0.00 | 1 | 1006.9 |
| 20260506000057 | 9 | 232 | 3.2 | 8.0 | 0.00 | 0.15 | 0.00 | 1 | 1007.3 |
| 20260505234648 | 9 | 219 | 1.6 | 4.8 | 0.00 | 0.15 | 0.00 | 1 | 1007.1 |
| 20260505233047 | 9 | 240 | 1.6 | 4.8 | 0.00 | 0.15 | 0.00 | 1 | 1007.1 |
| 20260505231544 | 10 | 267 | 1.6 | 6.4 | 0.00 | 0.15 | 0.00 | 1 | 1007.2 |
| 20260505230037 | 10 | 218 | 0.0 | 6.4 | 0.00 | 0.15 | 0.00 | 1 | 1007.4 |
| 20260505224636 | 10 | 243 | 4.8 | 14.5 | 0.00 | 0.15 | 0.00 | 1 | 1007.4 |
| 20260505223032 | 10 | 239 | 1.6 | 6.4 | 0.00 | 0.15 | 0.00 | 1 | 1007.4 |
| 20260505221524 | 10 | 217 | 0.0 | 9.7 | 0.00 | 0.15 | 0.00 | 1 | 1007.3 |
| 20260505220042 | 10 | 250 | 0.0 | 11.3 | 0.00 | 0.15 | 0.00 | 1 | 1007.4 |
| 20260505214621 | 10 | 243 | 3.2 | 9.7 | 0.00 | 0.15 | 0.15 | 1 | 1007.8 |
| 20260505213022 | 10 | 241 | 3.2 | 8.0 | 0.00 | 0.15 | 0.15 | 1 | 1007.8 |
| 20260505211618 | 10 | 223 | 4.8 | 11.3 | 0.00 | 0.15 | 0.15 | 1 | 1008.0 |
| 20260505210018 | 10 | 229 | 6.4 | 11.3 | 0.00 | 0.15 | 0.15 | 1 | 1007.9 |
| 20260505204618 | 10 | 231 | 3.2 | 6.4 | 0.00 | 0.15 | 0.15 | 1 | 1007.8 |
| 20260505203021 | 10 | 231 | 1.6 | 11.3 | 0.00 | 0.15 | 0.15 | 1 | 1007.9 |
| 20260505201519 | 9 | 241 | 1.6 | 8.0 | 0.00 | 0.15 | 0.15 | 1 | 1007.7 |
| 20260505200019 | 9 | 250 | 3.2 | 11.3 | 0.00 | 0.15 | 0.15 | 1 | 1007.7 |
| 20260505194618 | 9 | 241 | 3.2 | 12.9 | 0.00 | 0.15 | 0.15 | 1 | 1007.5 |
| 20260505193025 | 10 | 248 | 6.4 | 12.9 | 0.00 | 0.15 | 0.15 | 1 | 1007.3 |
| 20260505191519 | 10 | 236 | 4.8 | 12.9 | 0.00 | 0.15 | 0.15 | 1 | 1007.2 |
| 20260505190011 | 10 | 235 | 6.4 | 14.5 | 0.00 | 0.15 | 0.15 | 1 | 1007.1 |
| 20260505184607 | 10 | 245 | 4.8 | 11.3 | 0.00 | 0.15 | 0.15 | 1 | 1007.0 |
| 20260505183005 | 10 | 205 | 4.8 | 8.0 | 0.00 | 0.15 | 0.15 | 1 | 1007.0 |
| 20260505181504 | 10 | 218 | 0.0 | 9.7 | 0.00 | 0.15 | 0.15 | 1 | 1007.2 |
| 20260505180004 | 10 | 239 | 6.4 | 11.3 | 0.03 | 0.15 | 0.15 | 1 | 1007.0 |
| 20260505174600 | 10 | 198 | 3.2 | 9.7 | 0.03 | 0.15 | 0.15 | 1 | 1007.2 |
| 20260505173100 | 11 | 192 | 3.2 | 12.9 | 0.03 | 0.15 | 0.15 | 1 | 1007.3 |
| 20260505171555 | 11 | 215 | 3.2 | 6.4 | 0.05 | 0.15 | 0.15 | 1 | 1007.0 |
| 20260505170050 | 11 | 218 | 3.2 | 8.0 | 0.10 | 0.15 | 0.15 | 1 | 1007.0 |
| 20260505164556 | 11 | 158 | 1.6 | 4.8 | 0.13 | 0.15 | 0.15 | 1 | 1006.7 |
| 20260505163044 | 10 | 216 | 0.0 | 4.8 | 0.15 | 0.15 | 0.15 | 1 | 1006.6 |
| 20260505161549 | 10 | 249 | 3.2 | 16.1 | 0.15 | 0.15 | 0.15 | 1 | 1006.6 |
| 20260505153025 | 12 | 283 | 8.0 | 20.9 | 0.00 | 0.00 | 0.00 | 18 | 1006.0 |
| 20260505151520 | 13 | 287 | 4.8 | 19.3 | 0.00 | 0.00 | 0.00 | 35 | 1005.8 |
| 20260505124547 | 13 | 45 | 4.8 | 8.0 | 0.00 | 0.00 | 0.00 | 1 | 1006.0 |
| 20260505123038 | 13 | 35 | 3.2 | 12.9 | 0.00 | 0.00 | 0.00 | 1 | 1006.1 |
| 20260505121535 | 13 | 95 | 3.2 | 8.0 | 0.00 | 0.00 | 0.00 | 1 | 1005.9 |
| 20260505120037 | 13 | 40 | 3.2 | 6.4 | 0.00 | 0.00 | 0.00 | 1 | 1006.2 |
| 20260505114525 | 12 | 16 | 1.6 | 8.0 | 0.00 | 0.00 | 0.00 | 1 | 1006.3 |
| 20260505113022 | 12 | 31 | 0.0 | 9.7 | 0.00 | 0.00 | 0.00 | 1 | 1006.3 |
| 20260505111518 | 12 | 85 | 6.4 | 9.7 | 0.00 | 0.00 | 0.00 | 1 | 1006.3 |
| 20260505101507 | 11 | 40 | 0.0 | 6.4 | 0.00 | 0.00 | 0.00 | 1 | 1006.5 |
| 20260505100006 | 11 | 111 | 0.0 | 3.2 | 0.00 | 0.00 | 0.00 | 1 | 1006.5 |
| 20260505094559 | 11 | 162 | 0.0 | 1.6 | 0.00 | 0.00 | 0.00 | 1 | 1006.4 |
| 20260505093103 | 11 | 162 | 0.0 | 1.6 | 0.00 | 0.00 | 0.00 | 1 | 1006.5 |
| 20260505091549 | 10 | 162 | 0.0 | 1.6 | 0.00 | 0.00 | 0.00 | 1 | 1006.4 |
| 20260505090046 | 10 | 162 | 0.0 | 3.2 | 0.00 | 0.00 | 0.00 | 1 | 1006.5 |
| 20260505084547 | 10 | 164 | 0.0 | 4.8 | 0.00 | 0.00 | 0.00 | 1 | 1006.6 |
| 20260505083047 | 10 | 160 | 0.0 | 1.6 | 0.00 | 0.00 | 0.00 | 1 | 1006.6 |
| 20260505081533 | 10 | 158 | 3.2 | 6.4 | 0.00 | 0.00 | 0.00 | 1 | 1006.8 |
| 20260505080028 | 10 | 88 | 1.6 | 4.8 | 0.00 | 0.00 | 0.00 | 1 | 1006.8 |
| 20260505074525 | 10 | 111 | 0.0 | 0.0 | 0.00 | 0.00 | 0.00 | 1 | 1006.9 |
| 20260505073024 | 10 | 111 | 0.0 | 3.2 | 0.00 | 0.00 | 0.00 | 1 | 1007.2 |
| 20260505071519 | 10 | 111 | 0.0 | 0.0 | 0.00 | 0.00 | 0.00 | 1 | 1007.3 |
| 20260505070014 | 10 | 111 | 0.0 | 3.2 | 0.00 | 0.00 | 0.00 | 1 | 1007.5 |
| 20260505064510 | 10 | 111 | 0.0 | 4.8 | 0.00 | 0.00 | 0.00 | 1 | 1007.5 |
| 20260505063010 | 10 | 136 | 1.6 | 4.8 | 0.00 | 0.00 | 0.00 | 1 | 1007.5 |
| 20260505061510 | 10 | 57 | 0.0 | 0.0 | 0.00 | 0.00 | 0.00 | 1 | 1007.5 |
| 20260505060001 | 10 | 106 | 0.0 | 0.0 | 0.00 | 0.00 | 0.00 | 1 | 1007.5 |
| 20260505054559 | 10 | 106 | 0.0 | 0.0 | 0.00 | 0.00 | 0.00 | 1 | 1007.5 |
| 20260505053113 | 9 | 222 | 0.0 | 0.0 | 0.00 | 0.00 | 0.00 | 1 | 1007.3 |
| 20260505051550 | 9 | 222 | 0.0 | 0.0 | 0.00 | 0.00 | 0.00 | 1 | 1007.3 |
| 20260505041541 | 8 | 301 | 0.0 | 6.4 | 0.00 | 0.00 | 0.00 | 1 | 1007.4 |
| 20260505040029 | 8 | 284 | 0.0 | 1.6 | 0.00 | 0.00 | 0.00 | 1 | 1007.4 |
| 20260505034528 | 8 | 284 | 0.0 | 0.0 | 0.00 | 0.00 | 0.00 | 1 | 1007.3 |
| 20260505033022 | 8 | 284 | 0.0 | 0.0 | 0.00 | 0.00 | 0.00 | 1 | 1007.4 |
| 20260505031517 | 8 | 284 | 0.0 | 0.0 | 0.00 | 0.00 | 0.00 | 1 | 1007.6 |
| 20260505030013 | 8 | 285 | 0.0 | 0.0 | 0.00 | 0.00 | 0.00 | 1 | 1007.8 |
| 20260505024510 | 8 | 285 | 0.0 | 0.0 | 0.00 | 0.00 | 0.00 | 1 | 1007.8 |
| 20260505023006 | 8 | 285 | 0.0 | 0.0 | 0.00 | 0.00 | 0.00 | 1 | 1007.9 |
| 20260505021502 | 8 | 285 | 0.0 | 0.0 | 0.00 | 0.00 | 0.00 | 1 | 1008.1 |
| 20260505020100 | 8 | 283 | 0.0 | 0.0 | 0.00 | 0.00 | 0.00 | 1 | 1008.1 |
| 20260505014554 | 8 | 283 | 0.0 | 0.0 | 0.00 | 0.00 | 0.00 | 1 | 1008.0 |
| 20260505013051 | 8 | 283 | 0.0 | 0.0 | 0.00 | 0.00 | 0.00 | 1 | 1008.2 |